OAS4840 SKBO-SKUI

Flight info

Callsign OAS4840
Flight time 0h 34m
Altitude 22000
Route TOBKI4R VASIL W36 NIRSO W53 VOVRA VOVRA1C
Aircraft A320/M-SDE3FGHIRWY/LB1

Departure

Time 2026-05-06 23:55
Airport El Dorado International Airport (SKBO)

Arrival

Time 2026-05-07 00:30
Airport El Caraño Airport (SKUI)
Time Latitude Longitude Altitude Speed Heading
2026-05-06 23:34 4.69877 -74.14451 8366 ft 0 kts 226°
2026-05-06 23:42 4.69880 -74.14448 8366 ft 3 kts 226°
2026-05-06 23:42 4.69898 -74.14429 8366 ft 4 kts 231°
2026-05-06 23:43 4.69911 -74.14407 8366 ft 4 kts 276°
2026-05-06 23:43 4.69914 -74.14404 8366 ft 4 kts 306°
2026-05-06 23:43 4.69930 -74.14426 8366 ft 4 kts 307°
2026-05-06 23:43 4.69947 -74.14447 8366 ft 4 kts 307°
2026-05-06 23:44 4.69958 -74.14462 8366 ft 0 kts 307°
2026-05-06 23:46 4.69958 -74.14463 8366 ft 0 kts 307°
2026-05-06 23:46 4.69970 -74.14478 8366 ft 7 kts 307°
2026-05-06 23:47 4.70008 -74.14527 8366 ft 10 kts 307°
2026-05-06 23:47 4.70057 -74.14576 8366 ft 12 kts 328°
2026-05-06 23:47 4.70125 -74.14636 8366 ft 14 kts 323°
2026-05-06 23:47 4.70148 -74.14712 8366 ft 13 kts 232°
2026-05-06 23:48 4.70077 -74.14767 8366 ft 13 kts 217°
2026-05-06 23:48 4.70003 -74.14824 8366 ft 14 kts 216°
2026-05-06 23:48 4.69925 -74.14881 8366 ft 14 kts 217°
2026-05-06 23:48 4.69853 -74.14947 8366 ft 14 kts 249°
2026-05-06 23:49 4.69897 -74.15031 8366 ft 14 kts 305°
2026-05-06 23:49 4.69957 -74.15113 8366 ft 15 kts 307°
2026-05-06 23:49 4.70020 -74.15195 8366 ft 15 kts 308°
2026-05-06 23:49 4.70086 -74.15284 8366 ft 16 kts 307°
2026-05-06 23:50 4.70155 -74.15373 8366 ft 17 kts 308°
2026-05-06 23:50 4.70301 -74.15564 8365 ft 17 kts 304°
2026-05-06 23:50 4.70372 -74.15659 8365 ft 17 kts 307°
2026-05-06 23:51 4.70438 -74.15747 8365 ft 15 kts 307°
2026-05-06 23:51 4.70495 -74.15821 8366 ft 12 kts 307°
2026-05-06 23:51 4.70543 -74.15884 8366 ft 12 kts 308°
2026-05-06 23:51 4.70610 -74.15971 8365 ft 17 kts 306°
2026-05-06 23:52 4.70676 -74.16061 8366 ft 15 kts 307°
2026-05-06 23:52 4.70733 -74.16138 8366 ft 15 kts 307°
2026-05-06 23:52 4.70820 -74.16253 8366 ft 23 kts 307°
2026-05-06 23:52 4.70916 -74.16381 8366 ft 23 kts 307°
2026-05-06 23:53 4.71013 -74.16508 8366 ft 23 kts 308°
2026-05-06 23:53 4.71111 -74.16635 8366 ft 23 kts 307°
2026-05-06 23:53 4.71193 -74.16745 8366 ft 10 kts 304°
2026-05-06 23:53 4.71188 -74.16805 8366 ft 11 kts 230°
2026-05-06 23:54 4.71113 -74.16858 8363 ft 15 kts 213°
2026-05-06 23:54 4.71037 -74.16895 8363 ft 9 kts 149°
2026-05-06 23:54 4.70981 -74.16823 8363 ft 27 kts 128°
2026-05-06 23:54 4.70723 -74.16484 8365 ft 93 kts 127°
2026-05-06 23:55 4.70217 -74.15810 8363 ft 147 kts 127°
2026-05-06 23:55 4.69508 -74.14875 8442 ft 185 kts 126°
2026-05-06 23:55 4.68726 -74.13850 9237 ft 185 kts 130°
2026-05-06 23:55 4.67632 -74.13200 9948 ft 190 kts 174°
2026-05-06 23:56 4.66318 -74.13524 10268 ft 211 kts 216°
2026-05-06 23:56 4.65293 -74.14635 10419 ft 232 kts 234°
2026-05-06 23:56 4.64374 -74.16070 10602 ft 249 kts 237°
2026-05-06 23:56 4.63482 -74.17563 11061 ft 256 kts 237°
2026-05-06 23:57 4.62541 -74.19090 11677 ft 258 kts 235°
2026-05-06 23:57 4.61622 -74.20657 12262 ft 263 kts 247°
2026-05-06 23:57 4.61163 -74.22495 12526 ft 285 kts 259°
2026-05-06 23:57 4.60798 -74.24524 12658 ft 308 kts 258°
2026-05-06 23:58 4.60397 -74.26715 12787 ft 331 kts 259°
2026-05-06 23:58 4.60112 -74.29083 12905 ft 353 kts 264°
2026-05-06 23:58 4.59931 -74.31613 13023 ft 374 kts 266°
2026-05-06 23:58 4.59806 -74.34284 13131 ft 392 kts 267°
2026-05-06 23:59 4.59700 -74.37058 13414 ft 403 kts 267°
2026-05-06 23:59 4.59763 -74.39890 13868 ft 409 kts 281°
2026-05-06 23:59 4.60720 -74.42575 14271 ft 413 kts 298°
2026-05-06 23:59 4.62237 -74.45023 14734 ft 414 kts 308°
2026-05-07 00:00 4.64047 -74.47275 15199 ft 416 kts 313°
2026-05-07 00:00 4.65995 -74.49431 15671 ft 417 kts 315°
2026-05-07 00:00 4.67962 -74.51574 16140 ft 420 kts 314°
2026-05-07 00:00 4.69900 -74.53776 16629 ft 422 kts 312°
2026-05-07 00:01 4.71786 -74.56040 17110 ft 425 kts 311°
2026-05-07 00:01 4.73636 -74.58361 17592 ft 427 kts 311°
2026-05-07 00:01 4.75659 -74.60539 18088 ft 427 kts 320°
2026-05-07 00:01 4.77967 -74.62404 18555 ft 428 kts 325°
2026-05-07 00:02 4.80350 -74.64205 18944 ft 430 kts 325°
2026-05-07 00:02 4.82726 -74.65972 19326 ft 432 kts 326°
2026-05-07 00:02 4.85150 -74.67762 19684 ft 434 kts 325°
2026-05-07 00:02 4.87566 -74.69584 20044 ft 436 kts 324°
2026-05-07 00:03 4.89972 -74.71448 20405 ft 438 kts 324°
2026-05-07 00:03 4.92307 -74.73419 20734 ft 442 kts 317°
2026-05-07 00:03 4.94308 -74.75768 21059 ft 446 kts 307°
2026-05-07 00:03 4.95921 -74.78436 21394 ft 449 kts 297°
2026-05-07 00:04 4.97292 -74.81254 21608 ft 450 kts 297°
2026-05-07 00:04 4.98684 -74.84104 21640 ft 459 kts 297°
2026-05-07 00:04 5.00107 -74.87005 21625 ft 469 kts 297°
2026-05-07 00:04 5.01557 -74.89962 21610 ft 474 kts 297°
2026-05-07 00:05 5.03010 -74.92929 21605 ft 475 kts 297°
2026-05-07 00:05 5.04464 -74.95912 21600 ft 475 kts 297°
2026-05-07 00:05 5.05911 -74.98888 21606 ft 475 kts 297°
2026-05-07 00:05 5.07361 -75.01875 21619 ft 476 kts 297°
2026-05-07 00:06 5.08807 -75.04853 21663 ft 477 kts 297°
2026-05-07 00:06 5.10262 -75.07849 21947 ft 478 kts 297°
2026-05-07 00:06 5.11719 -75.10844 22040 ft 478 kts 297°
2026-05-07 00:06 5.13176 -75.13843 22064 ft 477 kts 297°
2026-05-07 00:07 5.14641 -75.16826 22090 ft 477 kts 299°
2026-05-07 00:07 5.16418 -75.19627 22199 ft 475 kts 308°
2026-05-07 00:07 5.18555 -75.22139 22205 ft 474 kts 313°
2026-05-07 00:07 5.20753 -75.24607 22203 ft 474 kts 313°
2026-05-07 00:08 5.22946 -75.27080 22203 ft 474 kts 313°
2026-05-07 00:08 5.25135 -75.29559 22197 ft 474 kts 313°
2026-05-07 00:08 5.27317 -75.32037 22186 ft 474 kts 313°
2026-05-07 00:08 5.29498 -75.34514 22176 ft 474 kts 313°
2026-05-07 00:09 5.31666 -75.37003 22158 ft 474 kts 310°
2026-05-07 00:09 5.33526 -75.39733 22142 ft 475 kts 300°
2026-05-07 00:09 5.34928 -75.42741 22129 ft 477 kts 291°
2026-05-07 00:09 5.35890 -75.45921 22117 ft 477 kts 286°
2026-05-07 00:10 5.36788 -75.49131 22099 ft 477 kts 287°
2026-05-07 00:10 5.37695 -75.52331 22085 ft 477 kts 287°
2026-05-07 00:10 5.38607 -75.55530 22070 ft 477 kts 287°
2026-05-07 00:10 5.39523 -75.58734 22061 ft 477 kts 287°
2026-05-07 00:11 5.40435 -75.61937 22055 ft 477 kts 287°
2026-05-07 00:11 5.41344 -75.65141 22052 ft 478 kts 287°
2026-05-07 00:11 5.42251 -75.68345 22049 ft 478 kts 287°
2026-05-07 00:11 5.43146 -75.71511 22043 ft 477 kts 287°
2026-05-07 00:12 5.44062 -75.74755 22038 ft 477 kts 287°
2026-05-07 00:12 5.44968 -75.77964 22033 ft 477 kts 287°
2026-05-07 00:12 5.45871 -75.81166 21975 ft 474 kts 287°
2026-05-07 00:12 5.46741 -75.84256 21729 ft 459 kts 287°
2026-05-07 00:13 5.47595 -75.87296 21487 ft 446 kts 287°
2026-05-07 00:13 5.48425 -75.90250 21239 ft 434 kts 287°
2026-05-07 00:13 5.49234 -75.93124 20991 ft 422 kts 287°
2026-05-07 00:13 5.50022 -75.95919 20754 ft 410 kts 287°
2026-05-07 00:14 5.50780 -75.98600 20504 ft 389 kts 287°
2026-05-07 00:14 5.51500 -76.01149 20260 ft 370 kts 287°
2026-05-07 00:14 5.52192 -76.03597 19781 ft 361 kts 287°
2026-05-07 00:14 5.52872 -76.05999 19203 ft 357 kts 287°
2026-05-07 00:15 5.53549 -76.08389 18603 ft 354 kts 287°
2026-05-07 00:15 5.54219 -76.10762 17956 ft 353 kts 287°
2026-05-07 00:15 5.54883 -76.13120 17290 ft 350 kts 287°
2026-05-07 00:15 5.55542 -76.15464 16647 ft 348 kts 287°
2026-05-07 00:16 5.56198 -76.17793 16050 ft 345 kts 287°
2026-05-07 00:16 5.56851 -76.20103 15463 ft 343 kts 286°
2026-05-07 00:16 5.57429 -76.22417 14886 ft 341 kts 278°
2026-05-07 00:16 5.57580 -76.24783 14301 ft 338 kts 270°
2026-05-07 00:17 5.57619 -76.27137 13722 ft 337 kts 270°
2026-05-07 00:17 5.57665 -76.29479 13099 ft 334 kts 270°
2026-05-07 00:17 5.57713 -76.31796 12519 ft 330 kts 271°
2026-05-07 00:17 5.57760 -76.34079 11984 ft 325 kts 271°
2026-05-07 00:18 5.57808 -76.36335 11507 ft 317 kts 271°
2026-05-07 00:18 5.57853 -76.38482 11380 ft 299 kts 271°
2026-05-07 00:18 5.57895 -76.40510 11176 ft 284 kts 271°
2026-05-07 00:18 5.57926 -76.42086 10991 ft 274 kts 271°
2026-05-07 00:19 5.57964 -76.43941 10850 ft 259 kts 271°
2026-05-07 00:19 5.58014 -76.45723 10560 ft 253 kts 276°
2026-05-07 00:19 5.58469 -76.47395 10219 ft 247 kts 299°
2026-05-07 00:19 5.59563 -76.48652 9883 ft 238 kts 332°
2026-05-07 00:20 5.61099 -76.49126 9503 ft 229 kts
2026-05-07 00:20 5.62586 -76.48699 9093 ft 223 kts 37°
2026-05-07 00:20 5.63310 -76.47993 8826 ft 219 kts 59°
2026-05-07 00:20 5.63771 -76.46564 8416 ft 217 kts 91°
2026-05-07 00:21 5.63349 -76.45134 8008 ft 217 kts 126°
2026-05-07 00:21 5.62179 -76.44201 7613 ft 219 kts 161°
2026-05-07 00:21 5.60675 -76.44102 7221 ft 220 kts 195°
2026-05-07 00:21 5.59382 -76.44878 6850 ft 220 kts 231°
2026-05-07 00:22 5.58762 -76.46248 6489 ft 218 kts 266°
2026-05-07 00:22 5.59005 -76.47743 5943 ft 225 kts 294°
2026-05-07 00:22 5.59549 -76.49261 5142 ft 240 kts 276°
2026-05-07 00:22 5.59315 -76.50925 4494 ft 246 kts 245°
2026-05-07 00:23 5.58243 -76.52231 3972 ft 245 kts 214°
2026-05-07 00:23 5.56656 -76.52795 3464 ft 244 kts 183°
2026-05-07 00:23 5.55011 -76.52457 2979 ft 244 kts 152°
2026-05-07 00:23 5.53785 -76.51319 2495 ft 243 kts 120°
2026-05-07 00:24 5.53341 -76.49722 2133 ft 237 kts 86°
2026-05-07 00:24 5.53761 -76.48200 2035 ft 217 kts 60°
2026-05-07 00:24 5.54789 -76.47185 2214 ft 208 kts 23°
2026-05-07 00:24 5.56194 -76.46983 2433 ft 207 kts 348°
2026-05-07 00:25 5.57489 -76.47578 2498 ft 206 kts 326°
2026-05-07 00:25 5.58646 -76.48432 2515 ft 206 kts 322°
2026-05-07 00:25 5.59716 -76.49377 2505 ft 205 kts 307°
2026-05-07 00:25 5.60499 -76.50571 2500 ft 205 kts 302°
2026-05-07 00:26 5.61255 -76.51789 2495 ft 205 kts 302°
2026-05-07 00:26 5.62017 -76.52998 2458 ft 205 kts 302°
2026-05-07 00:26 5.62782 -76.54205 2272 ft 205 kts 302°
2026-05-07 00:26 5.63538 -76.55394 2060 ft 199 kts 303°
2026-05-07 00:27 5.64265 -76.56538 1819 ft 187 kts 303°
2026-05-07 00:27 5.64928 -76.57583 1597 ft 167 kts 303°
2026-05-07 00:27 5.65524 -76.58521 1388 ft 155 kts 303°
2026-05-07 00:27 5.66092 -76.59416 1188 ft 150 kts 303°
2026-05-07 00:28 5.66648 -76.60290 997 ft 147 kts 303°
2026-05-07 00:28 5.67197 -76.61154 809 ft 146 kts 303°
2026-05-07 00:28 5.67739 -76.62008 626 ft 144 kts 303°
2026-05-07 00:28 5.68276 -76.62858 402 ft 144 kts 302°
2026-05-07 00:29 5.68804 -76.63690 214 ft 142 kts 303°
2026-05-07 00:29 5.69244 -76.64384 198 ft 75 kts 302°
2026-05-07 00:30 5.69394 -76.64631 201 ft 0 kts 17°
2026-05-07 00:30 5.69392 -76.64617 205 ft 5 kts 102°
2026-05-07 00:30 5.69349 -76.64547 202 ft 14 kts 123°
2026-05-07 00:30 5.69300 -76.64469 205 ft 12 kts 122°
2026-05-07 00:31 5.69260 -76.64405 203 ft 9 kts 122°
2026-05-07 00:31 5.69240 -76.64397 206 ft 4 kts 202°
2026-05-07 00:31 5.69208 -76.64411 197 ft 3 kts 198°
2026-05-07 00:31 5.69186 -76.64409 208 ft 3 kts 194°
2026-05-07 00:32 5.69174 -76.64417 198 ft 3 kts 213°
2026-05-07 00:32 5.69160 -76.64426 206 ft 0 kts 212°
2026-05-07 00:32 5.69154 -76.64430 209 ft 0 kts 211°